N36BG TGPY-TTPP

Flight info

Callsign N36BG
Flight time N/A
Altitude 3500
Route TTCP
Aircraft BE36/L-BDFGLORY/S

Departure

Time 2026-04-25 20:02
Airport Maurice Bishop International Airport (TGPY)

Arrival

Time N/A
Airport Piarco International Airport (TTPP)
Time Latitude Longitude Altitude Speed Heading
2026-04-25 19:47 12.00651 -61.78730 36 ft 0 kts 242°
2026-04-25 19:56 12.00648 -61.78734 36 ft 3 kts 220°
2026-04-25 19:56 12.00605 -61.78729 36 ft 7 kts 178°
2026-04-25 19:56 12.00574 -61.78684 36 ft 11 kts 95°
2026-04-25 19:56 12.00563 -61.78618 36 ft 9 kts 121°
2026-04-25 19:57 12.00498 -61.78606 38 ft 7 kts 180°
2026-04-25 19:57 12.00490 -61.78606 38 ft 0 kts 180°
2026-04-25 19:58 12.00471 -61.78607 38 ft 0 kts 180°
2026-04-25 19:58 12.00445 -61.78614 39 ft 11 kts 215°
2026-04-25 19:59 12.00421 -61.78739 40 ft 27 kts 271°
2026-04-25 19:59 12.00423 -61.78980 39 ft 40 kts 268°
2026-04-25 19:59 12.00421 -61.79303 35 ft 50 kts 273°
2026-04-25 19:59 12.00430 -61.79659 28 ft 49 kts 272°
2026-04-25 20:00 12.00460 -61.79861 28 ft 7 kts 254°
2026-04-25 20:00 12.00457 -61.79865 27 ft 0 kts 221°
2026-04-25 20:00 12.00457 -61.79866 27 ft 1 kts 220°
2026-04-25 20:01 12.00422 -61.79599 29 ft 59 kts 92°
2026-04-25 20:01 12.00408 -61.79257 36 ft 84 kts 92°
2026-04-25 20:01 12.00379 -61.78490 416 ft 84 kts 94°
2026-04-25 20:02 12.00379 -61.77868 741 ft 88 kts 93°
2026-04-25 20:02 12.00359 -61.77455 962 ft 90 kts 96°
2026-04-25 20:02 12.00311 -61.76803 1285 ft 94 kts 98°
2026-04-25 20:02 12.00106 -61.76167 1540 ft 103 kts 139°
2026-04-25 20:03 11.99401 -61.75863 1754 ft 109 kts 155°
2026-04-25 20:03 11.98683 -61.75558 1927 ft 122 kts 156°
2026-04-25 20:03 11.97839 -61.75207 1974 ft 135 kts 156°
2026-04-25 20:03 11.97050 -61.74868 2477 ft 110 kts 152°
2026-04-25 20:04 11.96537 -61.74420 2987 ft 86 kts 138°
2026-04-25 20:04 11.96124 -61.74025 3337 ft 81 kts 135°
2026-04-25 20:04 11.95697 -61.73591 3482 ft 99 kts 134°
2026-04-25 20:04 11.95158 -61.73028 3487 ft 122 kts 134°
2026-04-25 20:05 11.94532 -61.72360 3488 ft 135 kts 133°
2026-04-25 20:05 11.93882 -61.71655 3491 ft 138 kts 133°
2026-04-25 20:05 11.93220 -61.70930 3490 ft 141 kts 133°
2026-04-25 20:05 11.92543 -61.70188 3492 ft 144 kts 133°
2026-04-25 20:06 11.91855 -61.69435 3489 ft 146 kts 133°
2026-04-25 20:06 11.91159 -61.68673 3491 ft 147 kts 133°
2026-04-25 20:06 11.90461 -61.67909 3481 ft 148 kts 133°
2026-04-25 20:06 11.89760 -61.67143 3488 ft 148 kts 133°
2026-04-25 20:07 11.88967 -61.66490 3486 ft 147 kts 146°
2026-04-25 20:07 11.88186 -61.65822 3483 ft 146 kts 136°
2026-04-25 20:07 11.87457 -61.65095 3487 ft 147 kts 135°
2026-04-25 20:07 11.86737 -61.64350 3488 ft 148 kts 134°
2026-04-25 20:08 11.86023 -61.63597 3491 ft 148 kts 134°
2026-04-25 20:08 11.85312 -61.62841 3486 ft 148 kts 134°
2026-04-25 20:08 11.84609 -61.62096 3489 ft 148 kts 134°
2026-04-25 20:08 11.83892 -61.61339 3490 ft 149 kts 134°
2026-04-25 20:09 11.83171 -61.60579 3487 ft 150 kts 134°
2026-04-25 20:09 11.82446 -61.59814 3487 ft 150 kts 134°
2026-04-25 20:09 11.81720 -61.59047 3481 ft 150 kts 134°
2026-04-25 20:09 11.80992 -61.58278 3494 ft 151 kts 134°
2026-04-25 20:10 11.80262 -61.57508 3490 ft 151 kts 134°
2026-04-25 20:10 11.79536 -61.56742 3485 ft 150 kts 133°
2026-04-25 20:10 11.78813 -61.55978 3490 ft 149 kts 133°
2026-04-25 20:10 11.78093 -61.55217 3491 ft 149 kts 133°
2026-04-25 20:11 11.77373 -61.54459 3486 ft 149 kts 134°
2026-04-25 20:11 11.76654 -61.53700 3491 ft 149 kts 133°
2026-04-25 20:11 11.75935 -61.52941 3492 ft 149 kts 133°
2026-04-25 20:11 11.75217 -61.52183 3482 ft 149 kts 133°
2026-04-25 20:12 11.74497 -61.51424 3490 ft 149 kts 134°
2026-04-25 20:12 11.73777 -61.50664 3489 ft 149 kts 133°
2026-04-25 20:12 11.73054 -61.49903 3492 ft 149 kts 134°
2026-04-25 20:12 11.72574 -61.49397 3490 ft 150 kts 134°
2026-04-25 20:13 11.71607 -61.48375 3493 ft 150 kts 134°
2026-04-25 20:13 11.70892 -61.47622 3489 ft 146 kts 133°
2026-04-25 20:13 11.70197 -61.46890 3489 ft 142 kts 133°
2026-04-25 20:13 11.69516 -61.46169 3479 ft 140 kts 133°
2026-04-25 20:14 11.68845 -61.45461 3484 ft 138 kts 133°
2026-04-25 20:14 11.68178 -61.44758 3484 ft 137 kts 133°
2026-04-25 20:14 11.67512 -61.44058 3477 ft 138 kts 133°
2026-04-25 20:14 11.66847 -61.43357 3482 ft 138 kts 133°
2026-04-25 20:15 11.66180 -61.42653 3487 ft 138 kts 133°
2026-04-25 20:15 11.65512 -61.41948 3485 ft 138 kts 134°
2026-04-25 20:15 11.64843 -61.41243 3485 ft 138 kts 134°
2026-04-25 20:15 11.64175 -61.40540 3487 ft 138 kts 134°
2026-04-25 20:16 11.63510 -61.39840 3483 ft 137 kts 133°
2026-04-25 20:16 11.62853 -61.39145 3480 ft 136 kts 133°
2026-04-25 20:16 11.62199 -61.38455 3480 ft 135 kts 133°
2026-04-25 20:16 11.61549 -61.37772 3480 ft 134 kts 133°
2026-04-25 20:17 11.60901 -61.37089 3482 ft 134 kts 133°
2026-04-25 20:17 11.60255 -61.36408 3477 ft 133 kts 133°
2026-04-25 20:17 11.59620 -61.35738 3481 ft 133 kts 133°
2026-04-25 20:17 11.58975 -61.35059 3469 ft 133 kts 133°
2026-04-25 20:18 11.58332 -61.34381 3480 ft 133 kts 133°
2026-04-25 20:18 11.57688 -61.33701 3475 ft 133 kts 133°
2026-04-25 20:18 11.57043 -61.33022 3475 ft 133 kts 133°
2026-04-25 20:18 11.56398 -61.32342 3480 ft 133 kts 133°
2026-04-25 20:19 11.55756 -61.31663 3480 ft 133 kts 133°
2026-04-25 20:19 11.55123 -61.30975 3479 ft 133 kts 132°
2026-04-25 20:19 11.54490 -61.30283 3483 ft 134 kts 132°
2026-04-25 20:19 11.53850 -61.29589 3483 ft 135 kts 133°
2026-04-25 20:20 11.53203 -61.28894 3486 ft 136 kts 133°
2026-04-25 20:20 11.52551 -61.28193 3475 ft 136 kts 133°
2026-04-25 20:20 11.51897 -61.27491 3484 ft 137 kts 132°
2026-04-25 20:20 11.51242 -61.26787 3486 ft 137 kts 132°
2026-04-25 20:21 11.50586 -61.26084 3483 ft 137 kts 132°
2026-04-25 20:21 11.49930 -61.25381 3478 ft 137 kts 132°
2026-04-25 20:21 11.49274 -61.24676 3486 ft 137 kts 132°
2026-04-25 20:21 11.48617 -61.23971 3484 ft 137 kts 132°
2026-04-25 20:22 11.47959 -61.23265 3478 ft 137 kts 132°
2026-04-25 20:22 11.47523 -61.22798 3483 ft 137 kts 132°
2026-04-25 20:22 11.46643 -61.21856 3482 ft 137 kts 132°
2026-04-25 20:22 11.45983 -61.21150 3481 ft 137 kts 132°
2026-04-25 20:23 11.45325 -61.20445 3485 ft 137 kts 132°
2026-04-25 20:23 11.44665 -61.19739 3486 ft 138 kts 132°
2026-04-25 20:23 11.44004 -61.19034 3483 ft 137 kts 132°
2026-04-25 20:23 11.43348 -61.18335 3483 ft 138 kts 132°
2026-04-25 20:24 11.42684 -61.17626 3487 ft 139 kts 132°
2026-04-25 20:24 11.42016 -61.16911 3476 ft 139 kts 132°
2026-04-25 20:24 11.41353 -61.16201 3483 ft 138 kts 132°
2026-04-25 20:24 11.40690 -61.15494 3478 ft 138 kts 132°
2026-04-25 20:25 11.40030 -61.14789 3479 ft 137 kts 132°
2026-04-25 20:25 11.39371 -61.14088 3477 ft 137 kts 132°
2026-04-25 20:25 11.38719 -61.13400 3483 ft 137 kts 132°
2026-04-25 20:25 11.38058 -61.12703 3476 ft 137 kts 133°
2026-04-25 20:26 11.37388 -61.11993 3476 ft 137 kts 133°
2026-04-25 20:26 11.36731 -61.11284 3483 ft 138 kts 132°
2026-04-25 20:26 11.36082 -61.10583 3481 ft 138 kts 132°
2026-04-25 20:26 11.35423 -61.09871 3482 ft 138 kts 132°
2026-04-25 20:27 11.34763 -61.09157 3480 ft 139 kts 132°
2026-04-25 20:27 11.34101 -61.08441 3480 ft 139 kts 132°
2026-04-25 20:27 11.33435 -61.07723 3481 ft 139 kts 132°
2026-04-25 20:27 11.32769 -61.07006 3482 ft 139 kts 132°
2026-04-25 20:28 11.32101 -61.06288 3473 ft 139 kts 132°
2026-04-25 20:28 11.31434 -61.05571 3472 ft 139 kts 132°
2026-04-25 20:28 11.30768 -61.04854 3480 ft 139 kts 132°
2026-04-25 20:28 11.30100 -61.04136 3480 ft 140 kts 132°
2026-04-25 20:29 11.29432 -61.03417 3480 ft 140 kts 132°
2026-04-25 20:29 11.28764 -61.02699 3476 ft 140 kts 132°
2026-04-25 20:29 11.28095 -61.01981 3475 ft 140 kts 132°
2026-04-25 20:29 11.27427 -61.01264 3472 ft 140 kts 132°
2026-04-25 20:30 11.26757 -61.00545 3476 ft 140 kts 132°
2026-04-25 20:30 11.26088 -60.99826 3476 ft 140 kts 132°
2026-04-25 20:30 11.25417 -60.99108 3475 ft 140 kts 132°
2026-04-25 20:30 11.24748 -60.98390 3473 ft 140 kts 132°
2026-04-25 20:31 11.24080 -60.97674 3477 ft 139 kts 132°
2026-04-25 20:31 11.23415 -60.96958 3474 ft 139 kts 132°
2026-04-25 20:31 11.22750 -60.96245 3464 ft 138 kts 132°
2026-04-25 20:31 11.22089 -60.95533 3471 ft 138 kts 132°
2026-04-25 20:32 11.21433 -60.94825 3477 ft 138 kts 132°
2026-04-25 20:32 11.20773 -60.94115 3476 ft 138 kts 132°
2026-04-25 20:32 11.20111 -60.93404 3476 ft 138 kts 132°
2026-04-25 20:32 11.19448 -60.92694 3477 ft 138 kts 132°
2026-04-25 20:33 11.18785 -60.91987 3474 ft 138 kts 132°
2026-04-25 20:33 11.18132 -60.91295 3469 ft 137 kts 132°
2026-04-25 20:33 11.17472 -60.90597 3475 ft 137 kts 132°
2026-04-25 20:33 11.17249 -60.90362 3474 ft 137 kts 132°
2026-04-25 20:34 11.16146 -60.89197 3476 ft 138 kts 132°
2026-04-25 20:34 11.15479 -60.88495 3474 ft 138 kts 132°
2026-04-25 20:34 11.14813 -60.87791 3472 ft 138 kts 132°
2026-04-25 20:34 11.14151 -60.87090 3477 ft 137 kts 132°
2026-04-25 20:35 11.13491 -60.86391 3468 ft 137 kts 132°
2026-04-25 20:35 11.12831 -60.85693 3464 ft 137 kts 132°
2026-04-25 20:35 11.12172 -60.84996 3474 ft 137 kts 132°
2026-04-25 20:35 11.11513 -60.84299 3473 ft 137 kts 132°
2026-04-25 20:36 11.10852 -60.83601 3475 ft 137 kts 132°
2026-04-25 20:36 11.10191 -60.82902 3476 ft 137 kts 132°
2026-04-25 20:36 11.09526 -60.82199 3471 ft 138 kts 132°
2026-04-25 20:36 11.08856 -60.81491 3476 ft 139 kts 132°
2026-04-25 20:37 11.08183 -60.80782 3477 ft 139 kts 132°
2026-04-25 20:37 11.07509 -60.80073 3476 ft 139 kts 132°
2026-04-25 20:37 11.06839 -60.79369 3474 ft 138 kts 132°
2026-04-25 20:37 11.06172 -60.78666 3470 ft 138 kts 132°
2026-04-25 20:38 11.05507 -60.77966 3475 ft 137 kts 132°
2026-04-25 20:38 11.04855 -60.77280 3471 ft 136 kts 132°
2026-04-25 20:38 11.04189 -60.76577 3474 ft 136 kts 132°
2026-04-25 20:38 11.03534 -60.75885 3476 ft 136 kts 132°
2026-04-25 20:39 11.02887 -60.75200 3470 ft 136 kts 132°
2026-04-25 20:39 11.02233 -60.74509 3474 ft 136 kts 132°
2026-04-25 20:39 11.01575 -60.73821 3474 ft 136 kts 132°
2026-04-25 20:39 11.01354 -60.73588 3473 ft 136 kts 132°
2026-04-25 20:40 11.00259 -60.72445 3476 ft 136 kts 132°
2026-04-25 20:40 10.99593 -60.71758 3477 ft 137 kts 132°
2026-04-25 20:40 10.98927 -60.71066 3479 ft 137 kts 132°
2026-04-25 20:40 10.98259 -60.70368 3473 ft 138 kts 132°
2026-04-25 20:41 10.97654 -60.69623 3471 ft 136 kts 109°
2026-04-25 20:41 10.97825 -60.68718 3481 ft 140 kts 52°
2026-04-25 20:41 10.98731 -60.68366 3482 ft 150 kts 359°
2026-04-25 20:41 10.99657 -60.68873 3481 ft 156 kts 320°
2026-04-25 20:42 11.00450 -60.69630 3492 ft 156 kts 319°
2026-04-25 20:42 11.01249 -60.70382 3491 ft 157 kts 319°
2026-04-25 20:42 11.02058 -60.71128 3490 ft 157 kts 320°
2026-04-25 20:42 11.02872 -60.71865 3487 ft 156 kts 320°
2026-04-25 20:43 11.03684 -60.72602 3488 ft 157 kts 320°
2026-04-25 20:43 11.04478 -60.73366 3487 ft 157 kts 317°
2026-04-25 20:43 11.05248 -60.74159 3487 ft 158 kts 316°
2026-04-25 20:43 11.06015 -60.74957 3489 ft 158 kts 316°
2026-04-25 20:44 11.06785 -60.75757 3489 ft 158 kts 316°
2026-04-25 20:44 11.07556 -60.76557 3486 ft 158 kts 316°
2026-04-25 20:44 11.08067 -60.77086 3487 ft 158 kts 316°
2026-04-25 20:44 11.09098 -60.78156 3487 ft 158 kts 316°
2026-04-25 20:45 11.09348 -60.78414 3488 ft 158 kts 316°